• In Denmark
  • List of Countries
  • For 7 days
  • Water Temperature
  • Satellite Maps
  • Weather Map
  • Weather Widgets
  • user-avatar
    Login

    Hourly Weather Hobart

    Today, 19 November, Sunday

    Time Temperature Precipitation Wind Pressure Humidity
    00:00 +14°C° 0 mm 3 mps 753 mmHg 94%
    01:00 +13°C° 0 mm 3 mps 753 mmHg 95%
    02:00 +13°C° 0 mm 3 mps 753 mmHg 95%
    03:00 +13°C° 0 mm 3 mps 753 mmHg 95%
    04:00 +13°C° 0 mm 3 mps 753 mmHg 95%
    05:00 +16°C° 0 mm 2 mps 754 mmHg 86%
    06:00 +18°C° 0 mm 2 mps 754 mmHg 77%
    07:00 +20°C° 0 mm 2 mps 754 mmHg 68%
    08:00 +23°C° 0 mm 2 mps 754 mmHg 59%
    09:00 +26°C° 0 mm 2 mps 754 mmHg 50%
    10:00 +29°C° 0 mm 2 mps 755 mmHg 39%
    11:00 +29°C° 0 mm 2 mps 755 mmHg 37%
    12:00 +30°C° 0 mm 2 mps 754 mmHg 36%
    13:00 +30°C° 0 mm 3 mps 754 mmHg 34%
    14:00 +30°C° 0 mm 3 mps 754 mmHg 36%
    15:00 +29°C° 0 mm 3 mps 754 mmHg 37%
    16:00 +29°C° 0 mm 3 mps 753 mmHg 38%
    17:00 +26°C° 0 mm 3 mps 754 mmHg 48%
    18:00 +24°C° 0 mm 2 mps 754 mmHg 58%
    19:00 +21°C° 0 mm 2 mps 754 mmHg 67%
    20:00 +19°C° 0 mm 2 mps 754 mmHg 75%
    21:00 +18°C° 0 mm 1 mps 755 mmHg 83%
    22:00 +15°C° 0 mm 1 mps 755 mmHg 91%
    23:00 +15°C° 0 mm 1 mps 755 mmHg 91%

    Tomorrow, 20 November, Monday

    Time Temperature Precipitation Wind Pressure Humidity
    00:00 +15°C° 0 mm 1 mps 755 mmHg 91%
    01:00 +15°C° 0 mm 1 mps 755 mmHg 91%
    02:00 +15°C° 0 mm 1 mps 755 mmHg 90%
    03:00 +15°C° 0 mm 1 mps 755 mmHg 90%
    04:00 +14°C° 0 mm 1 mps 755 mmHg 90%
    05:00 +16°C° 0 mm 1 mps 755 mmHg 82%
    06:00 +19°C° 0 mm 1 mps 756 mmHg 75%
    07:00 +21°C° 0 mm 1 mps 756 mmHg 67%
    08:00 +23°C° 0 mm 1 mps 756 mmHg 58%
    09:00 +26°C° 0 mm 1 mps 756 mmHg 48%
    10:00 +28°C° 0 mm 1 mps 756 mmHg 38%
    11:00 +29°C° 0 mm 2 mps 756 mmHg 35%
    12:00 +30°C° 0 mm 2 mps 755 mmHg 31%
    13:00 +31°C° 0 mm 3 mps 755 mmHg 27%
    14:00 +30°C° 0 mm 3 mps 755 mmHg 29%
    15:00 +30°C° 0 mm 4 mps 754 mmHg 30%
    16:00 +29°C° 0 mm 4 mps 754 mmHg 31%
    17:00 +27°C° 0 mm 3 mps 754 mmHg 41%
    18:00 +24°C° 0 mm 3 mps 754 mmHg 50%
    19:00 +21°C° 0 mm 3 mps 754 mmHg 60%
    20:00 +19°C° 0 mm 2 mps 755 mmHg 66%
    21:00 +18°C° 0 mm 2 mps 755 mmHg 71%
    22:00 +16°C° 0 mm 2 mps 755 mmHg 77%
    23:00 +16°C° 0 mm 2 mps 755 mmHg 79%

    Day after tomorrow, 21 November, Tuesday

    Time Temperature Precipitation Wind Pressure Humidity
    00:00 +15°C° 0 mm 2 mps 755 mmHg 80%
    01:00 +15°C° 0 mm 2 mps 754 mmHg 82%
    02:00 +15°C° 0 mm 2 mps 754 mmHg 84%
    03:00 +14°C° 0 mm 2 mps 754 mmHg 86%
    04:00 +14°C° 0 mm 2 mps 754 mmHg 87%
    05:00 +16°C° 0 mm 2 mps 754 mmHg 78%
    06:00 +18°C° 0 mm 2 mps 754 mmHg 69%
    07:00 +20°C° 0 mm 2 mps 754 mmHg 59%
    08:00 +24°C° 0 mm 2 mps 754 mmHg 50%
    09:00 +26°C° 0 mm 2 mps 754 mmHg 40%
    10:00 +29°C° 0 mm 3 mps 754 mmHg 31%
    11:00 +30°C° 0 mm 3 mps 754 mmHg 28%
    12:00 +31°C° 0 mm 3 mps 753 mmHg 25%
    13:00 +33°C° 0 mm 4 mps 753 mmHg 22%
    14:00 +32°C° 0 mm 4 mps 753 mmHg 23%
    15:00 +32°C° 0 mm 4 mps 752 mmHg 25%
    16:00 +32°C° 0 mm 4 mps 752 mmHg 26%
    17:00 +28°C° 0 mm 4 mps 752 mmHg 36%
    18:00 +26°C° 0 mm 3 mps 752 mmHg 46%
    19:00 +22°C° 0 mm 3 mps 752 mmHg 55%
    20:00 +21°C° 0 mm 3 mps 752 mmHg 61%
    21:00 +19°C° 0 mm 2 mps 753 mmHg 68%
    22:00 +17°C° 0 mm 2 mps 753 mmHg 74%
    23:00 +17°C° 0 mm 2 mps 753 mmHg 75%

    22 November, Wednesday

    Time Temperature Precipitation Wind Pressure Humidity
    00:00 +16°C° 0 mm 2 mps 752 mmHg 76%
    01:00 +16°C° 0 mm 2 mps 752 mmHg 78%
    02:00 +15°C° 0 mm 2 mps 752 mmHg 78%
    03:00 +15°C° 0 mm 2 mps 752 mmHg 79%
    04:00 +15°C° 0 mm 2 mps 752 mmHg 79%
    05:00 +17°C° 0 mm 2 mps 752 mmHg 71%
    06:00 +19°C° 0 mm 2 mps 752 mmHg 62%
    07:00 +21°C° 0 mm 2 mps 752 mmHg 54%
    08:00 +25°C° 0 mm 2 mps 752 mmHg 46%
    09:00 +27°C° 0 mm 2 mps 752 mmHg 37%
    10:00 +30°C° 0 mm 2 mps 752 mmHg 29%
    11:00 +31°C° 0 mm 3 mps 751 mmHg 26%
    12:00 +31°C° 0 mm 3 mps 751 mmHg 24%
    13:00 +33°C° 0 mm 4 mps 751 mmHg 21%
    14:00 +32°C° 0 mm 4 mps 750 mmHg 23%
    15:00 +32°C° 0 mm 4 mps 750 mmHg 25%
    16:00 +30°C° 0 mm 5 mps 749 mmHg 27%
    17:00 +28°C° 0 mm 4 mps 750 mmHg 37%
    18:00 +26°C° 0 mm 4 mps 750 mmHg 46%
    19:00 +22°C° 0 mm 3 mps 750 mmHg 56%
    20:00 +20°C° 0 mm 3 mps 750 mmHg 63%
    21:00 +18°C° 0 mm 3 mps 750 mmHg 71%
    22:00 +17°C° 0 mm 2 mps 750 mmHg 78%
    23:00 +16°C° 0 mm 3 mps 750 mmHg 79%

    23 November, Thursday

    Time Temperature Precipitation Wind Pressure Humidity
    00:00 +16°C° 0 mm 3 mps 749 mmHg 81%
    01:00 +14°C° 0 mm 3 mps 749 mmHg 82%
    02:00 +14°C° 0 mm 3 mps 748 mmHg 84%
    03:00 +13°C° 0 mm 3 mps 748 mmHg 86%
    04:00 +13°C° 0 mm 3 mps 748 mmHg 88%
    05:00 +16°C° 0 mm 3 mps 748 mmHg 79%
    06:00 +18°C° 0 mm 3 mps 748 mmHg 70%
    07:00 +20°C° 0 mm 3 mps 748 mmHg 61%
    08:00 +24°C° 0 mm 3 mps 748 mmHg 51%
    09:00 +27°C° 0 mm 3 mps 748 mmHg 40%
    10:00 +30°C° 0 mm 3 mps 748 mmHg 30%
    11:00 +30°C° 0 mm 3 mps 748 mmHg 29%
    12:00 +31°C° 0 mm 3 mps 747 mmHg 28%
    13:00 +32°C° 0 mm 4 mps 747 mmHg 26%
    14:00 +30°C° 0 mm 4 mps 747 mmHg 32%
    15:00 +29°C° 0 mm 4 mps 747 mmHg 38%
    16:00 +27°C° 0 mm 4 mps 746 mmHg 43%
    17:00 +25°C° 0.1 mm 3 mps 747 mmHg 52%
    18:00 +22°C° 0.1 mm 3 mps 747 mmHg 62%
    19:00 +20°C° 0.1 mm 2 mps 747 mmHg 71%
    20:00 +18°C° 0 mm 2 mps 747 mmHg 77%
    21:00 +16°C° 0 mm 1 mps 747 mmHg 83%
    22:00 +14°C° 0 mm 1 mps 747 mmHg 90%
    23:00 +14°C° 0 mm 1 mps 747 mmHg 89%

    24 November, Friday

    Time Temperature Precipitation Wind Pressure Humidity
    00:00 +14°C° 0 mm 1 mps 747 mmHg 89%
    01:00 +14°C° 0 mm 1 mps 746 mmHg 89%
    02:00 +14°C° 0 mm 1 mps 746 mmHg 88%
    03:00 +15°C° 0 mm 1 mps 746 mmHg 86%
    04:00 +15°C° 0 mm 1 mps 746 mmHg 85%
    05:00 +16°C° 0 mm 2 mps 747 mmHg 80%
    06:00 +18°C° 0 mm 2 mps 747 mmHg 74%
    07:00 +20°C° 0 mm 2 mps 747 mmHg 68%
    08:00 +20°C° 0.2 mm 2 mps 748 mmHg 68%
    09:00 +21°C° 0.2 mm 2 mps 748 mmHg 68%
    10:00 +21°C° 0.2 mm 2 mps 748 mmHg 68%
    11:00 +23°C° 0.2 mm 2 mps 748 mmHg 66%
    12:00 +24°C° 0.2 mm 2 mps 748 mmHg 64%
    13:00 +24°C° 0.2 mm 2 mps 748 mmHg 63%
    14:00 +23°C° 0.5 mm 2 mps 748 mmHg 71%
    15:00 +21°C° 0.5 mm 2 mps 748 mmHg 79%
    16:00 +19°C° 0.5 mm 2 mps 748 mmHg 87%
    17:00 +19°C° 0.2 mm 2 mps 748 mmHg 89%
    18:00 +19°C° 0.2 mm 1 mps 748 mmHg 91%
    19:00 +18°C° 0.2 mm 1 mps 749 mmHg 93%
    20:00 +16°C° 0 mm 1 mps 749 mmHg 95%
    21:00 +16°C° 0 mm 1 mps 749 mmHg 97%
    22:00 +15°C° 0 mm 1 mps 750 mmHg 99%
    23:00 +15°C° 0 mm 1 mps 750 mmHg 99%
    Show more